Home > Weather > Navi Mumbai > Past weeks

Flag for India Weather for the Past 2 Weeks in Navi Mumbai, Maharashtra, India

Now
73 °F

Haze.


Feels Like: 74 °F
Forecast: 64 / 93 °F
Wind: No wind

Location: Mumbai / Santacruz

Current Time: Feb 9, 2016 at 5:19:41 AM

Latest Report: Feb 9, 2016 at 4:30 AM


Visibility: 1 mi

Pressure: 29.86 "Hg

Humidity: 78%

Dew point: 66 °F

Location of Navi MumbaiLocation

Historic Weather in Navi Mumbai — Graph

°F

Navi Mumbai Temperature Yesterday

Maximum temperature yesterday: 84 °F (at 2:00 PM)
Minimum temperature yesterday: 68 °F (at 4:00 AM)
Average temperature yesterday: 76 °F

High & Low Weather Summary for the Past Weeks

 TemperatureHumidityPressure
High91 °F (Jan 28, 4:00 PM)88% (Jan 27, 3:30 AM)30.04 "Hg (Jan 27, 3:30 AM)
Low66 °F (Jan 26, 7:30 AM)22% (Jan 25, 11:30 AM)29.80 "Hg (Feb 6, 4:30 AM)
Average78 °F55%29.93 "Hg
* Reported Jan 25 3:30 AM — Feb 9 3:30 AM, Navi Mumbai, Weather by CustomWeather, © 2016

Note: Actual official high and low records may vary slightly from our data, if they occured in-between our weather recording intervals... More about our weather records

Advertising

Navi Mumbai Weather History for the Previous 24 Hours

 ConditionsComfort  
Time TempWeatherWind HumidityBarometerVisibility
3:30 AM
Tue, Feb 9
73 °FHaze.3 mph78%29.89 "Hg1 mi
3:00 AM73 °FHaze.No wind78%29.89 "Hg1 mi
2:30 AM73 °FHaze.No wind78%29.89 "Hg1 mi
2:00 AM73 °FHaze.No wind78%29.89 "Hg1 mi
1:30 AM73 °FHaze.No wind78%29.92 "Hg1 mi
1:00 AM75 °FHaze.No wind69%29.92 "Hg1 mi
12:30 AM75 °FHaze.3 mph69%29.92 "Hg1 mi
12:00 AM75 °FHaze.3 mph69%29.92 "Hg1 mi
11:30 PM
Mon, Feb 8
75 °FHaze.3 mph69%29.92 "Hg2 mi
11:00 PM75 °FHaze.3 mph69%29.92 "Hg2 mi
10:30 PM77 °FHaze.5 mph65%29.92 "Hg2 mi
10:00 PM77 °FHaze.3 mph61%29.92 "Hg2 mi
9:30 PM79 °FHaze.5 mph58%29.92 "Hg2 mi
9:00 PM77 °FHaze.5 mph61%29.92 "Hg2 mi
8:30 PM77 °FHaze.6 mph65%29.89 "Hg2 mi
8:00 PM79 °FHaze.6 mph65%29.89 "Hg2 mi
7:30 PM79 °FHaze.7 mph65%29.89 "Hg2 mi
7:00 PM79 °FHaze.7 mph65%29.89 "Hg2 mi
6:30 PM79 °FHaze.8 mph65%29.86 "Hg3 mi
6:00 PM81 °FHaze.9 mph62%29.86 "Hg3 mi
5:30 PM81 °FClear.12 mph58%29.86 "Hg4 mi
5:00 PM82 °FClear.10 mph55%29.86 "Hg4 mi
4:30 PM82 °FClear.9 mph55%29.86 "Hg5 mi
3:30 PM84 °FSunny.12 mph48%29.86 "Hg10 mi
3:00 PM84 °FClear.7 mph48%29.86 "Hg5 mi
2:30 PM84 °FClear.9 mph45%29.89 "Hg4 mi
2:00 PM84 °FClear.12 mph51%29.89 "Hg4 mi
1:30 PM82 °FClear.10 mph51%29.89 "Hg3 mi
1:00 PM82 °FClear.12 mph51%29.92 "Hg2 mi
12:30 PM82 °FClear.9 mph48%29.95 "Hg2 mi
12:00 PM82 °FClear.7 mph42%29.95 "Hg2 mi
11:30 AM81 °FClear.3 mph45%29.98 "Hg2 mi
11:00 AM79 °FClear.3 mph51%29.98 "Hg2 mi
10:30 AM77 °FClear.5 mph54%29.98 "Hg1 mi
10:00 AM77 °FClear.6 mph54%29.98 "Hg1 mi
9:30 AM75 °FClear.5 mph57%29.98 "Hg1 mi
9:00 AM73 °FHaze.6 mph57%29.98 "Hg1 mi
8:30 AM72 °FHaze.3 mph65%29.95 "Hg1 mi
8:00 AM70 °FHaze.No wind69%29.95 "Hg1 mi
7:30 AM68 °FHaze.No wind73%29.95 "Hg2 mi
6:30 AM68 °FHaze.No wind73%29.95 "Hg2 mi
6:00 AM68 °FHaze.3 mph73%29.95 "Hg2 mi
5:30 AM68 °FHaze.No wind73%29.92 "Hg2 mi
5:00 AM70 °FHaze.No wind73%29.92 "Hg2 mi
Weather by CustomWeather, © 2016

See weather overviewHow to use our weather pages